Location: Pardubice
(50.0618°N, 15.7556°E)
Time: 18:28:06
(UTC+02:00)

ISS - Pass Details

Date: 28 May 2018
Orbit: 402 x 406 km, 51.6° (Epoch: 22 June)

Event Time Altitude Azimuth Distance (km) Brightness Sun altitude
Rises 01:02:41 0° 287° (WNW) 2,322 0.2 -18.5°
Reaches altitude 10° 01:04:51 10° 278° (W) 1,459 -1.0 -18.5°
Enters shadow 01:06:14 21° 264° (W) 974 -2.0 -18.5°
